Tracking 19562 objects as of 21-Mar-2019
HD Live streaming from Space Station
objects crossing your sky now

COSMOS 1909

Track COSMOS 1909 now!
10-day predictions
COSMOS 1909 is classified as:


NORAD ID: 18788
Int'l Code: 1988-002A
Perigee: 1,417.1 km
Apogee: 1,420.0 km
Inclination: 82.6 °
Period: 114.0 minutes
Semi major axis: 7789 km
RCS: 1.1748 m2 (large)
Launch date: January 15, 1988
Source: Commonwealth of Independent States (former USSR) (CIS)
Launch site: PLESETSK MISSILE AND SPACE COMPLEX (PKMTR)
aabbcc
Your satellite tracking list
Your tracking list is empty




NASA's NSSDC Master Catalog

Two Line Element Set (TLE):
1 18788U 88002A   19079.90890201 +.00000034 +00000-0 +13073-3 0  9999
2 18788 082.6137 159.4798 0001879 154.2078 251.8139 12.62794828436928
Source of the keplerian elements: AFSPC